QPF
0.00 0.00 0.00 0.00 0.00 0.00 0.00 0.00 0.00 0.00 0.00 0.00 0.00 0.00 0.00 0.00 0.00 0.00 0.00 0.01 0.00 0.00 0.00 0.00 0.00 0.00 0.00 0.00 0.00 0.00 0.00 0.00 0.11
0.00 0.00 0.00 0.00 0.00 0.00 0.00 0.00 0.00 0.00 0.00 0.00 0.00 0.00 0.00 0.00 0.00 0.00 0.00 0.01 0.01 0.00 0.00 0.00 0.00 0.00 0.00 0.00 0.00 0.00 0.00 0.03 0.07
0.00 0.00 0.00 0.00 0.00 0.00 0.00 0.00 0.00 0.00 0.00 0.00 0.00 0.00 0.00 0.00 0.00 0.00 0.00 0.01 0.02 0.00 0.00 0.00 0.03 0.05 0.02 0.00 0.00 0.00 0.00 0.01 0.00
0.00 0.00 0.00 0.00 0.00 0.00 0.00 0.00 0.00 0.00 0.00 0.00 0.00 0.00 0.00 0.00 0.00 0.00 0.00 0.02 0.04 0.00 0.00 0.00 0.05 0.05 0.03 0.00 0.00 0.00 0.00 0.00 0.00
0.00 0.00 0.00 0.00 0.00 0.00 0.00 0.00 0.00 0.00 0.00 0.00 0.00 0.00 0.00 0.00 0.00 0.00 0.00 0.00 0.03 0.02 0.01 0.00 0.01 0.01 0.00 0.00 0.00 0.00 0.00 0.00 0.00
0.00 0.00 0.00 0.00 0.00 0.00 0.00 0.00 0.00 0.00 0.00 0.00 0.00 0.00 0.00 0.00 0.00 0.00 0.00 0.00 0.00 0.00 0.00 0.00 0.00 0.00 0.00 0.00 0.00 0.00 0.00 0.00 0.00
0.00 0.00 0.00 0.00 0.00 0.00 0.00 0.00 0.00 0.00 0.00 0.00 0.00 0.00 0.00 0.00 0.00 0.00 0.00 0.00 0.00 0.00 0.00 0.03 0.06 0.02 0.00 0.00 0.00 0.00 0.00 0.00 0.00
0.00 0.00 0.00 0.00 0.00 0.00 0.00 0.00 0.00 0.00 0.00 0.00 0.00 0.00 0.00 0.00 0.00 0.00 0.00 0.00 0.00 0.00 0.01 0.08 0.06 0.03 0.00 0.00 0.00 0.00 0.00 0.00 0.00
0.00 0.00 0.00 0.00 0.00 0.00 0.00 0.00 0.00 0.00 0.00 0.00 0.00 0.00 0.00 0.00 0.00 0.00 0.00 0.00 0.00 0.00 0.00 0.02 0.01 0.00 0.00 0.00 0.00 0.00 0.00 0.00 0.00
0.00 0.00 0.00 0.00 0.00 0.00 0.00 0.00 0.00 0.00 0.00 0.00 0.00 0.00 0.00 0.00 0.00 0.00 0.00 0.00 0.00 0.00 0.00 0.05 0.00 0.00 0.00 0.00 0.00 0.00 0.00 0.00 0.00
0.00 0.00 0.00 0.00 0.00 0.00 0.00 0.00 0.00 0.00 0.00 0.00 0.00 0.00 0.00 0.00 0.00 0.00 0.00 0.00 0.00 0.00 0.00 0.00 0.00 0.00 0.00 0.00 0.00 0.00 0.00 0.00 0.00
0.00 0.00 0.00 0.00 0.00 0.00 0.00 0.00 0.00 0.00 0.00 0.00 0.00 0.00 0.00 0.00 0.00 0.00 0.00 0.00 0.00 0.00 0.00 0.00 0.01 0.01 0.00 0.00 0.00 0.00 0.00 0.00 0.00
0.00 0.00 0.00 0.00 0.00 0.00 0.00 0.00 0.00 0.00 0.00 0.00 0.00 0.00 0.00 0.00 0.00 0.00 0.00 0.00 0.00 0.00 0.00 0.00 0.00 0.00 0.00 0.00 0.00 0.00 0.00 0.00 0.00
0.00 0.00 0.00 0.00 0.00 0.00 0.00 0.00 0.00 0.00 0.00 0.00 0.00 0.00 0.00 0.00 0.00 0.00 0.00 0.00 0.00 0.00 0.00 0.00 0.00 0.00 0.00 0.00 0.00 0.00 0.00 0.00 0.00
0.00 0.00 0.00 0.00 0.00 0.00 0.00 0.00 0.00 0.00 0.00 0.00 0.00 0.00 0.00 0.00 0.00 0.00 0.00 0.00 0.00 0.00 0.00 0.00 0.00 0.00 0.00 0.00 0.00 0.00 0.00 0.00 0.00
0.00 0.00 0.00 0.00 0.00 0.00 0.00 0.00 0.00 0.00 0.00 0.00 0.00 0.00 0.00 0.00 0.00 0.00 0.00 0.00 0.00 0.00 0.00 0.00 0.00 0.00 0.00 0.00 0.00 0.00 0.00 0.00 0.00
0.00 0.00 0.00 0.00 0.00 0.00 0.00 0.00 0.00 0.00 0.00 0.00 0.00 0.00 0.00 0.00 0.00 0.00 0.00 0.00 0.00 0.00 0.00 0.00 0.00 0.00 0.00 0.00 0.00 0.00 0.00 0.00 0.00
0.00 0.00 0.00 0.00 0.00 0.00 0.00 0.00 0.00 0.00 0.00 0.00 0.00 0.00 0.00 0.00 0.00 0.00 0.00 0.00 0.00 0.00 0.00 0.00 0.00 0.00 0.00 0.00 0.00 0.00 0.00 0.00 0.00
0.00 0.00 0.00 0.00 0.00 0.00 0.00 0.00 0.00 0.00 0.00 0.00 0.00 0.00 0.00 0.00 0.00 0.00 0.00 0.00 0.00 0.00 0.00 0.00 0.00 0.00 0.00 0.00 0.00 0.00 0.00 0.00 0.00
0.00 0.00 0.00 0.00 0.00 0.00 0.00 0.00 0.00 0.00 0.00 0.00 0.00 0.00 0.00 0.00 0.00 0.00 0.00 0.00 0.00 0.00 0.00 0.00 0.00 0.00 0.00 0.00 0.00 0.00 0.00 0.00 0.00
MSLP
1004.17 1004.78 1005.56 1006.34 1007.32 1008.28 1009.30 1010.23 1011.19 1011.94 1012.77 1013.55 1014.17 1014.84 1015.28 1015.93 1016.38 1016.56 1016.79 1017.08 1017.10 1017.25 1017.22 1017.31 1017.40 1017.67 1017.92 1018.22 1018.38 1018.50 1018.55 1018.79 1018.92
1003.94 1004.53 1005.27 1005.85 1006.83 1007.73 1008.67 1009.53 1010.37 1011.09 1012.03 1012.79 1013.55 1014.32 1014.88 1015.52 1015.98 1016.25 1016.39 1016.71 1016.85 1016.99 1017.14 1017.12 1017.31 1017.48 1017.76 1018.00 1018.00 1018.11 1018.22 1018.60 1019.00
1003.55 1004.32 1004.98 1005.61 1006.36 1007.14 1008.02 1008.97 1009.97 1010.79 1011.55 1012.01 1012.71 1013.71 1014.30 1014.96 1015.42 1015.80 1016.10 1016.42 1016.57 1016.70 1016.89 1017.00 1017.07 1017.26 1017.46 1017.80 1017.45 1017.77 1018.28 1018.73 1019.17
1002.96 1003.59 1004.46 1005.08 1005.68 1006.50 1007.52 1008.46 1009.34 1010.27 1010.99 1011.60 1012.31 1013.36 1013.98 1014.43 1014.88 1015.21 1015.63 1015.95 1016.14 1016.40 1016.72 1016.88 1016.95 1017.23 1017.43 1017.67 1017.70 1018.01 1018.41 1018.82 1019.21
1002.48 1003.03 1003.61 1004.53 1005.23 1006.05 1006.99 1007.87 1008.57 1009.35 1010.19 1010.84 1011.60 1012.79 1013.63 1014.09 1014.54 1014.73 1015.18 1015.53 1015.82 1016.08 1016.43 1016.70 1016.89 1017.25 1017.55 1017.71 1017.85 1018.06 1018.44 1018.81 1019.25
1002.25 1002.82 1003.46 1004.11 1004.90 1005.67 1006.56 1007.31 1008.17 1008.78 1009.52 1010.25 1011.01 1012.04 1013.02 1013.56 1013.94 1014.30 1014.60 1015.04 1015.46 1015.83 1016.11 1016.37 1016.68 1017.14 1017.43 1017.58 1017.91 1018.20 1018.66 1019.03 1019.29
1002.12 1002.90 1003.60 1004.09 1004.49 1005.16 1006.19 1007.12 1007.92 1008.57 1009.30 1009.93 1010.54 1011.64 1012.27 1012.75 1013.14 1013.68 1014.10 1014.54 1015.10 1015.48 1015.81 1016.03 1016.36 1016.84 1017.25 1017.62 1017.98 1018.32 1018.80 1019.17 1019.33
1001.84 1002.49 1003.16 1003.84 1004.71 1005.26 1006.11 1007.10 1007.86 1008.50 1009.04 1009.68 1010.32 1011.34 1011.73 1012.15 1012.61 1013.37 1013.91 1014.33 1014.81 1015.20 1015.44 1015.76 1016.28 1016.81 1017.19 1017.57 1017.90 1018.45 1018.74 1019.11 1019.46
1001.11 1001.73 1002.59 1003.45 1004.39 1005.06 1005.91 1006.52 1007.32 1008.02 1008.62 1009.33 1010.13 1010.87 1011.22 1011.85 1012.38 1013.16 1013.74 1014.16 1014.64 1015.02 1015.34 1015.81 1016.33 1016.65 1017.05 1017.50 1018.01 1018.40 1018.84 1019.20 1019.35
1000.61 1001.23 1002.14 1002.77 1003.52 1004.57 1005.28 1005.92 1006.68 1007.26 1008.04 1009.15 1009.94 1010.45 1011.13 1011.53 1012.09 1012.82 1013.45 1014.01 1014.44 1014.80 1015.23 1015.77 1016.15 1016.67 1017.11 1017.55 1017.89 1018.47 1018.93 1019.32 1019.39
999.91 1000.55 1001.41 1002.20 1002.85 1003.71 1004.53 1005.29 1006.33 1007.07 1008.06 1008.97 1009.48 1009.99 1010.67 1011.23 1011.87 1012.46 1013.21 1013.81 1014.14 1014.57 1015.04 1015.65 1016.14 1016.61 1016.96 1017.27 1017.86 1018.44 1018.97 1019.42 1019.61
998.91 999.78 1000.51 1001.05 1001.95 1002.95 1003.92 1004.56 1005.89 1006.82 1007.92 1008.59 1008.83 1009.50 1010.35 1010.98 1011.47 1012.07 1012.89 1013.39 1013.82 1014.46 1014.89 1015.43 1015.91 1016.48 1016.77 1017.18 1017.53 1018.28 1019.02 1019.28 1019.57
999.25 999.41 999.99 1000.61 1001.50 1002.39 1003.37 1004.25 1005.54 1006.52 1007.29 1007.67 1008.25 1008.82 1009.46 1010.42 1011.09 1011.70 1012.51 1013.02 1013.56 1014.25 1014.87 1015.13 1015.43 1016.01 1016.54 1017.04 1017.69 1018.52 1018.78 1018.89 1019.28
999.66 999.58 1000.15 1000.80 1001.47 1001.91 1002.21 1003.57 1004.83 1005.70 1006.64 1006.90 1007.49 1008.45 1008.99 1009.91 1010.79 1011.15 1012.16 1012.95 1013.42 1013.96 1014.59 1015.02 1015.38 1015.75 1016.28 1016.84 1017.53 1018.23 1018.45 1018.87 1019.06
1000.04 1000.07 1000.27 1000.91 1001.29 1002.03 1002.67 1003.26 1004.23 1005.03 1005.73 1006.38 1007.24 1008.09 1008.72 1009.34 1010.28 1010.65 1011.58 1012.54 1013.07 1013.53 1014.09 1014.70 1015.16 1015.65 1016.19 1016.75 1017.27 1017.69 1018.23 1018.63 1018.77
1000.26 1000.28 1000.34 1000.80 1001.27 1001.88 1002.55 1003.25 1003.50 1004.09 1004.70 1005.92 1006.65 1007.80 1008.37 1008.86 1009.71 1010.31 1010.89 1011.78 1012.50 1013.11 1013.52 1013.79 1014.35 1014.87 1015.25 1015.77 1016.54 1017.14 1017.80 1018.23 1018.51
1000.47 1000.55 1000.67 1000.72 1001.17 1001.59 1002.18 1002.82 1003.52 1004.04 1005.05 1005.70 1006.26 1007.06 1007.84 1008.54 1009.21 1009.88 1010.44 1010.99 1011.69 1012.37 1012.95 1013.33 1013.60 1013.88 1014.14 1014.77 1015.59 1016.16 1016.79 1017.55 1018.30
1001.47 1001.19 1001.08 1000.93 1001.04 1001.22 1001.64 1002.46 1003.12 1003.73 1004.74 1005.24 1005.95 1006.75 1007.42 1008.00 1008.64 1009.35 1009.78 1010.18 1010.48 1011.11 1011.67 1012.13 1012.58 1012.88 1013.34 1013.83 1014.38 1014.91 1015.84 1016.53 1016.98
1002.82 1002.19 1001.72 1001.49 1001.47 1001.34 1001.47 1001.99 1002.58 1003.13 1003.82 1004.41 1005.15 1006.00 1006.76 1007.21 1007.65 1008.56 1009.05 1009.49 1010.29 1011.01 1011.34 1011.82 1012.30 1012.69 1012.91 1013.21 1013.73 1014.33 1015.13 1015.67 1016.18
1003.86 1003.24 1002.78 1002.65 1002.43 1002.17 1002.06 1002.28 1002.48 1002.81 1003.17 1003.66 1004.24 1004.74 1005.65 1006.38 1006.91 1007.29 1007.88 1008.51 1009.07 1009.86 1011.39 1011.55 1012.07 1012.47 1012.87 1013.24 1013.48 1014.08 1014.55 1015.10 1015.60
Thickness
5839 5836 5833 5828 5819 5812 5805 5799 5795 5792 5787 5780 5777 5773 5770 5767 5763 5763 5762 5761 5763 5764 5767 5769 5771 5771 5771 5771 5773 5776 5778 5780 5782
5833 5831 5830 5828 5821 5815 5809 5803 5800 5796 5789 5785 5779 5773 5770 5765 5762 5762 5762 5762 5763 5763 5765 5768 5769 5769 5770 5769 5773 5776 5778 5780 5779
5835 5832 5829 5827 5823 5818 5812 5808 5802 5798 5792 5788 5783 5776 5771 5766 5763 5762 5761 5761 5761 5762 5764 5766 5768 5769 5771 5770 5771 5776 5776 5776 5775
5839 5837 5831 5829 5826 5823 5816 5811 5805 5799 5794 5789 5783 5775 5770 5766 5763 5763 5761 5760 5761 5762 5763 5764 5767 5767 5768 5770 5772 5774 5774 5774 5772
5842 5842 5840 5834 5829 5824 5818 5812 5809 5804 5797 5792 5786 5776 5768 5763 5760 5760 5758 5757 5759 5760 5760 5762 5763 5764 5763 5767 5770 5772 5772 5772 5771
5841 5839 5838 5834 5828 5823 5818 5815 5809 5805 5800 5793 5785 5776 5766 5761 5758 5756 5756 5756 5756 5758 5760 5761 5762 5761 5760 5765 5766 5768 5768 5769 5769
5842 5833 5829 5831 5830 5825 5820 5814 5807 5801 5796 5792 5785 5774 5767 5762 5759 5757 5756 5755 5755 5757 5759 5760 5761 5759 5760 5760 5762 5765 5765 5766 5767
5839 5833 5830 5826 5821 5818 5816 5809 5803 5798 5794 5789 5784 5771 5766 5761 5760 5757 5755 5754 5755 5756 5758 5759 5758 5756 5755 5756 5759 5761 5764 5764 5764
5840 5838 5832 5827 5818 5815 5811 5809 5803 5798 5793 5787 5780 5769 5763 5759 5758 5754 5753 5753 5753 5754 5756 5756 5754 5754 5754 5754 5756 5759 5760 5762 5763
5843 5841 5833 5830 5823 5817 5814 5812 5807 5801 5794 5785 5775 5766 5761 5760 5758 5754 5752 5752 5752 5751 5751 5751 5752 5751 5750 5749 5754 5755 5757 5760 5763
5848 5844 5839 5832 5827 5822 5820 5817 5808 5803 5793 5780 5772 5767 5763 5762 5760 5757 5752 5751 5750 5749 5750 5747 5747 5748 5750 5749 5756 5755 5755 5757 5760
5858 5852 5846 5842 5835 5828 5823 5819 5810 5801 5790 5782 5778 5772 5767 5764 5763 5759 5753 5750 5749 5745 5745 5744 5745 5746 5750 5750 5755 5754 5754 5757 5758
5851 5852 5849 5842 5837 5831 5826 5820 5812 5800 5793 5788 5784 5781 5777 5770 5766 5763 5754 5752 5749 5745 5740 5744 5747 5747 5745 5750 5753 5750 5755 5758 5758
5844 5847 5843 5842 5836 5831 5832 5825 5815 5804 5798 5794 5795 5788 5784 5775 5770 5770 5760 5753 5751 5746 5742 5745 5747 5748 5747 5750 5753 5753 5753 5755 5757
5835 5836 5837 5836 5833 5827 5825 5824 5818 5809 5804 5804 5799 5792 5787 5782 5774 5774 5767 5757 5753 5751 5746 5746 5749 5750 5749 5751 5754 5756 5753 5754 5757
5830 5832 5833 5833 5830 5824 5822 5820 5821 5813 5813 5807 5802 5793 5788 5786 5779 5776 5772 5764 5758 5755 5754 5756 5755 5755 5757 5758 5758 5758 5755 5754 5754
5825 5828 5827 5830 5827 5823 5820 5820 5817 5814 5810 5805 5801 5796 5791 5787 5783 5778 5775 5772 5767 5761 5759 5759 5761 5762 5765 5766 5763 5763 5761 5758 5754
5812 5819 5823 5826 5824 5822 5820 5818 5815 5814 5810 5806 5798 5795 5792 5788 5785 5779 5778 5776 5776 5773 5773 5773 5771 5772 5772 5771 5768 5770 5769 5766 5764
5796 5804 5813 5816 5814 5817 5819 5819 5816 5815 5814 5810 5803 5796 5793 5792 5790 5783 5782 5779 5774 5770 5771 5770 5771 5773 5774 5776 5774 5771 5768 5767 5766
5780 5790 5797 5800 5803 5807 5808 5809 5810 5812 5813 5811 5806 5802 5797 5794 5790 5790 5787 5784 5780 5776 5768 5768 5768 5768 5769 5769 5773 5769 5767 5764 5762